Weather History for KD39 - February, 2013

Change the Weather History Date:

Wednesday, February 13, 2013

  Actual Average (KGHW) Record (KGHW)
Temperature  
Mean Temperature 23 °F -  
Max Temperature 32 °F 25 °F 62 °F (1997)
Min Temperature 14 °F 4 °F -26 °F (1951)
Degree Days  
Heating Degree Days 42    
Moisture  
Dew Point 24 °F    
Average Humidity 91    
Maximum Humidity 100    
Minimum Humidity 75    
Precipitation  
Precipitation 0.11 in - - ()
Sea Level Pressure  
Sea Level Pressure 29.64 in    
Wind  
Wind Speed 4 mph (WNW)    
Max Wind Speed 10 mph    
Max Gust Speed -    
Visibility 7 miles    
Events Snow    
Averages and records for this station are not official NWS values.
T = Trace of Precipitation, MM = Missing Value Source: NWS Daily Summary

Daily Weather History Graph

Daily Weather History Graph

Search for Another Location

Airport or City:

Trip Planner

Search our weather history database for the weather conditions in past years. The results will help you decide how hot, cold, wet, or windy it might be!

Date:

Astronomy

Feb. 13, 2013 Rise Set
Actual Time 7:24 AM CST 5:44 PM CST
Civil Twilight 6:53 AM CST 6:14 PM CST
Nautical Twilight 6:18 AM CST 6:49 PM CST
Astronomical Twilight 5:44 AM CST 7:24 PM CST
Moon 8:40 AM CST (2/13) 10:03 PM CST (2/13)
Length of Visible Light 11h 20m
Length of Day
10h 19m
Waxing Crescent, 14% of the Moon is Illuminated
Feb 13
Waxing Crescent
Feb 17
First Quarter
Feb 25
Full
Mar 4
Last Quarter
Mar 11
New

Hourly Weather History & Observations

Time (CST) Temp. Windchill Dew Point Humidity Pressure Visibility Wind Dir Wind Speed Gust Speed Precip Events Conditions
12:15 AM 15.8 °F 7.2 °F 14.0 °F 93% 29.77 in 10.0 mi West 5.8 mph - N/A   Scattered Clouds
12:35 AM 14.0 °F 6.5 °F 12.2 °F 93% 29.77 in 10.0 mi West 4.6 mph - N/A   Scattered Clouds
12:55 AM 14.0 °F 6.5 °F 12.2 °F 93% 29.75 in 10.0 mi West 4.6 mph - N/A   Clear
1:15 AM 14.0 °F 6.5 °F 12.2 °F 93% 29.75 in 10.0 mi West 4.6 mph - N/A   Clear
1:35 AM 15.8 °F 10.2 °F 14.0 °F 93% 29.74 in 10.0 mi West 3.5 mph - N/A   Clear
1:55 AM 15.8 °F 8.6 °F 14.0 °F 93% 29.75 in 10.0 mi West 4.6 mph - N/A   Scattered Clouds
2:15 AM 15.8 °F 6.1 °F 14.0 °F 93% 29.75 in 10.0 mi West 6.9 mph - N/A   Mostly Cloudy
2:35 AM 17.6 °F 9.3 °F 14.0 °F 86% 29.74 in 10.0 mi West 5.8 mph - N/A   Scattered Clouds
2:55 AM 17.6 °F 8.2 °F 14.0 °F 86% 29.74 in 10.0 mi West 6.9 mph - N/A   Clear
3:15 AM 15.8 °F 8.6 °F 14.0 °F 93% 29.74 in 10.0 mi West 4.6 mph - N/A   Clear
3:35 AM 17.6 °F 9.3 °F 14.0 °F 86% 29.74 in 10.0 mi West 5.8 mph - N/A   Mostly Cloudy
3:55 AM 17.6 °F 8.2 °F 15.8 °F 93% 29.72 in 10.0 mi West 6.9 mph - N/A   Overcast
4:15 AM 19.4 °F 11.5 °F 17.6 °F 93% 29.72 in 10.0 mi West 5.8 mph - N/A   Overcast
4:35 AM 19.4 °F 14.3 °F 17.6 °F 93% 29.72 in 10.0 mi WNW 3.5 mph - N/A   Overcast
4:55 AM 19.4 °F 14.3 °F 17.6 °F 93% 29.71 in 10.0 mi West 3.5 mph - N/A   Overcast
5:15 AM 21.2 °F - 19.4 °F 93% 29.71 in 10.0 mi Calm Calm - N/A   Overcast
5:35 AM 21.2 °F - 19.4 °F 93% 29.70 in 10.0 mi Calm Calm - N/A   Overcast
5:55 AM 21.2 °F - 19.4 °F 93% 29.69 in 10.0 mi Calm Calm - N/A   Overcast
6:15 AM 23.0 °F - 19.4 °F 86% 29.69 in 10.0 mi Calm Calm - N/A   Overcast
6:35 AM 21.2 °F 14.9 °F 19.4 °F 93% 29.68 in 10.0 mi West 4.6 mph - N/A   Overcast
6:55 AM 23.0 °F 18.4 °F 19.4 °F 86% 29.68 in 10.0 mi West 3.5 mph - N/A   Overcast
7:15 AM 23.0 °F - 19.4 °F 86% 29.68 in 10.0 mi Calm Calm - N/A   Mostly Cloudy
7:35 AM 21.2 °F - 19.4 °F 93% 29.68 in 10.0 mi Calm Calm - N/A   Scattered Clouds
7:55 AM 19.4 °F 14.3 °F 17.6 °F 93% 29.68 in 7.0 mi West 3.5 mph - N/A   Clear
8:15 AM 19.4 °F - 17.6 °F 93% 29.68 in 10.0 mi Calm Calm - N/A   Clear
8:55 AM 21.2 °F - 17.6 °F 86% 29.67 in 10.0 mi Calm Calm - N/A   Clear
9:15 AM 21.2 °F - 19.4 °F 93% 29.67 in 10.0 mi Calm Calm - N/A   Clear
9:35 AM 24.8 °F 19.1 °F 19.4 °F 80% 29.66 in 10.0 mi West 4.6 mph - N/A   Clear
9:55 AM 26.6 °F 20.0 °F 21.2 °F 80% 29.65 in 10.0 mi West 5.8 mph - N/A   Clear
10:15 AM 28.4 °F 21.2 °F 23.0 °F 80% 29.65 in 10.0 mi WSW 6.9 mph - N/A   Clear
10:35 AM 30.2 °F 24.3 °F 23.0 °F 75% 29.64 in 10.0 mi WSW 5.8 mph - N/A   Clear
10:55 AM 30.2 °F 22.6 °F 23.0 °F 75% 29.65 in 10.0 mi SW 8.1 mph - N/A   Clear
11:15 AM 30.2 °F 23.4 °F 24.8 °F 80% 29.64 in 10.0 mi WSW 6.9 mph - N/A   Clear
11:35 AM 30.2 °F 22.6 °F 24.8 °F 80% 29.64 in 10.0 mi West 8.1 mph - N/A   Scattered Clouds
11:55 AM 32.0 °F 24.8 °F 24.8 °F 75% 29.63 in 10.0 mi WSW 8.1 mph - N/A   Scattered Clouds
12:15 PM 32.0 °F 25.6 °F 24.8 °F 75% 29.63 in 10.0 mi WSW 6.9 mph - N/A   Clear
12:35 PM 32.0 °F 24.2 °F 26.6 °F 80% 29.62 in 10.0 mi West 9.2 mph - N/A   Scattered Clouds
12:55 PM 32.0 °F 25.6 °F 26.6 °F 80% 29.61 in 10.0 mi West 6.9 mph - N/A   Mostly Cloudy
1:15 PM 32.0 °F 24.8 °F 26.6 °F 80% 29.60 in 10.0 mi West 8.1 mph - N/A   Overcast
1:35 PM 32.0 °F 25.6 °F 26.6 °F 80% 29.60 in 10.0 mi West 6.9 mph - N/A   Overcast
1:55 PM 32.0 °F 26.4 °F 26.6 °F 80% 29.60 in 10.0 mi West 5.8 mph - N/A   Overcast
2:15 PM 32.0 °F 28.7 °F 26.6 °F 80% 29.59 in 7.0 mi West 3.5 mph - N/A Snow Light Snow
2:35 PM 32.0 °F 27.5 °F 28.4 °F 87% 29.59 in 2.5 mi SW 4.6 mph - N/A Snow Light Snow
2:55 PM 32.0 °F 28.7 °F 28.4 °F 87% 29.59 in 1.2 mi SW 3.5 mph - N/A Snow Light Snow
3:15 PM 32.0 °F - 30.2 °F 93% 29.58 in 1.2 mi Calm Calm - N/A Snow Light Snow
3:35 PM 30.2 °F - 30.2 °F 100% 29.57 in 1.0 mi Calm Calm - N/A Snow Light Snow
3:55 PM 30.2 °F - 30.2 °F 100% 29.57 in 0.5 mi Calm Calm - N/A Snow Snow
4:15 PM 32.0 °F 28.7 °F 30.2 °F 93% 29.56 in 0.5 mi East 3.5 mph - 0.02 in Snow Light Snow
4:35 PM 30.2 °F - 30.2 °F 100% 29.56 in 1.0 mi Calm Calm - 0.03 in Snow Light Snow
4:55 PM 30.2 °F - 30.2 °F 100% 29.56 in 0.8 mi Calm Calm - 0.04 in Snow Light Snow
5:15 PM 30.2 °F - 30.2 °F 100% 29.56 in 0.5 mi Calm Calm - 0.01 in Snow Snow
5:35 PM 30.2 °F 26.7 °F 30.2 °F 100% 29.56 in 0.5 mi SSE 3.5 mph - 0.03 in Snow Snow
5:55 PM 30.2 °F 25.4 °F 30.2 °F 100% 29.57 in 0.8 mi South 4.6 mph - 0.03 in Snow Light Snow
6:15 PM 30.2 °F - 30.2 °F 100% 29.57 in 0.8 mi Calm Calm - N/A Snow Snow
6:35 PM 30.2 °F - 30.2 °F 100% 29.57 in 1.0 mi Calm Calm - 0.01 in Snow Light Snow
6:55 PM 30.2 °F - 30.2 °F 100% 29.57 in 1.2 mi Calm Calm - 0.02 in Snow Light Snow
7:15 PM 30.2 °F - 30.2 °F 100% 29.57 in 1.5 mi Calm Calm - N/A Snow Light Snow
7:35 PM 30.2 °F 26.7 °F 30.2 °F 100% 29.57 in 1.8 mi NNE 3.5 mph - 0.01 in Snow Light Snow
7:55 PM 30.2 °F 25.4 °F 30.2 °F 100% 29.57 in 1.0 mi NNE 4.6 mph - 0.01 in Snow Light Snow
8:15 PM 30.2 °F 25.4 °F 30.2 °F 100% 29.57 in 1.5 mi NNE 4.6 mph - 0.01 in Snow Light Snow
8:35 PM 30.2 °F 24.3 °F 30.2 °F 100% 29.57 in 2.5 mi North 5.8 mph - 0.01 in Snow Light Snow
8:55 PM 30.2 °F 24.3 °F 30.2 °F 100% 29.58 in 3.0 mi North 5.8 mph - 0.01 in Snow Light Snow
9:15 PM 30.2 °F 24.3 °F 30.2 °F 100% 29.58 in 2.0 mi North 5.8 mph - N/A Snow Light Snow
9:35 PM 30.2 °F 23.4 °F 30.2 °F 100% 29.59 in 2.5 mi North 6.9 mph - N/A Snow Light Snow
9:55 PM 32.0 °F 25.6 °F 30.2 °F 93% 29.60 in 3.0 mi North 6.9 mph - N/A Snow Light Snow
10:15 PM 32.0 °F 24.2 °F 30.2 °F 93% 29.60 in 3.0 mi North 9.2 mph - N/A Snow Light Snow
10:35 PM 32.0 °F 24.2 °F 30.2 °F 93% 29.61 in 3.0 mi North 9.2 mph - N/A Snow Light Snow
10:55 PM 30.2 °F 21.9 °F 30.2 °F 100% 29.62 in 4.0 mi North 9.2 mph - N/A Snow Light Snow
11:15 PM 30.2 °F 22.6 °F 30.2 °F 100% 29.63 in 4.0 mi North 8.1 mph - N/A Snow Light Snow
11:55 PM 30.2 °F 21.3 °F 28.4 °F 93% 29.64 in 4.0 mi NNW 10.4 mph - N/A Snow Light Snow